Date String (YYYY-MM-DD hh:mm:ss) UTC,Instrument flags,Ambient pressure (hPa),Sample flow (lpm),Bypass flow (lpm),Sample temperature (°C),Ambient temperature (°C),ASC tube jacket temperature (°C),LED temperature (°C),Box temperature (°C),Sample RH (%),Span deviation,Mass concentration (μg/m³),Mass concentration (μg/m³),Mass concentration (μg/m³)
DateTimeUTC,F1_M11,P_M11,Q1_M11,Q2_M11,T1_M11,T2_M11,T3_M11,T4_M11,T5_M11,U1_M11,ZSPAN_M11,X0_M11,X2_M11,X1_M11
2023-02-04 12:00:00,,0823.8,4.97,0.00,22.7,21.0,00.0,31.7,24.3,05.1,0000.0,0004.95,0001.29,0000.52
2023-02-04 12:01:00,,0823.9,5.00,0.00,22.7,21.0,00.0,31.7,24.3,05.0,0000.0,0005.18,0001.32,0000.52
2023-02-04 12:02:00,,0823.8,5.02,0.00,22.7,21.0,00.0,31.6,24.2,05.0,0000.0,0005.24,0001.33,0000.51
2023-02-04 12:03:00,,0823.9,5.01,0.00,22.6,21.0,00.0,31.6,24.2,05.2,0000.0,0005.22,0001.34,0000.49
2023-02-04 12:04:00,,0824.0,5.01,0.00,22.6,21.0,00.0,31.6,24.2,05.7,0000.0,0005.09,0001.28,0000.49
2023-02-04 12:05:00,,0823.9,5.00,0.00,22.6,21.0,00.0,31.6,24.3,05.6,0000.0,0004.60,0001.32,0000.49
2023-02-04 12:06:00,,0823.9,4.98,0.00,22.6,21.0,00.0,31.6,24.3,05.8,0000.0,0004.17,0001.38,0000.48
2023-02-04 12:07:00,,0823.9,4.97,0.00,22.6,21.0,00.0,31.6,24.3,06.3,0000.0,0004.12,0001.38,0000.47
2023-02-04 12:08:00,,0824.0,5.01,0.00,22.6,21.0,00.0,31.6,24.2,05.5,0000.0,0004.02,0001.37,0000.47
2023-02-04 12:09:00,,0823.8,5.03,0.00,22.6,21.0,00.0,31.5,24.2,05.2,0000.0,0003.78,0001.31,0000.47
2023-02-04 12:10:00,,0823.8,5.02,0.00,22.6,21.0,00.0,31.5,24.2,05.8,0000.0,0003.57,0001.26,0000.46
2023-02-04 12:11:00,,0823.8,5.01,0.00,22.6,21.0,00.0,31.5,24.3,05.9,0000.0,0003.74,0001.27,0000.45
2023-02-04 12:12:00,,0823.9,4.98,0.00,22.6,21.0,00.0,31.5,24.2,05.4,0000.0,0003.47,0001.21,0000.44
2023-02-04 12:13:00,,0824.0,4.97,0.00,22.5,20.9,00.0,31.5,24.1,05.7,0000.0,0003.66,0001.18,0000.42
2023-02-04 12:14:00,,0824.0,5.01,0.00,22.5,20.9,00.0,31.5,24.1,05.1,0000.0,0003.81,0001.18,0000.42
2023-02-04 12:15:00,,0824.0,5.01,0.00,22.5,20.9,00.0,31.5,24.1,05.3,0000.0,0003.90,0001.22,0000.41
2023-02-04 12:16:00,,0823.9,5.01,0.00,22.5,20.9,00.0,31.5,24.2,05.7,0000.0,0003.66,0001.16,0000.41
2023-02-04 12:17:00,,0824.1,5.01,0.00,22.5,21.0,00.0,31.5,24.2,05.6,0000.0,0003.24,0001.07,0000.40
2023-02-04 12:18:00,,0824.1,4.99,0.00,22.5,21.0,00.0,31.4,24.2,05.5,0000.0,0003.21,0001.07,0000.40
2023-02-04 12:19:00,,0824.0,4.99,0.00,22.5,21.0,00.0,31.4,24.2,05.7,0000.0,0003.18,0001.05,0000.40
2023-02-04 12:20:00,,0824.0,4.96,0.00,22.5,21.0,00.0,31.4,24.2,05.3,0000.0,0003.19,0001.07,0000.40
2023-02-04 12:21:00,,0824.0,5.00,0.00,22.5,21.0,00.0,31.4,24.1,05.2,0000.0,0003.35,0001.12,0000.40
2023-02-04 12:22:00,,0824.0,5.01,0.00,22.5,20.9,00.0,31.4,24.1,05.2,0000.0,0002.98,0001.09,0000.40
2023-02-04 12:23:00,,0824.0,5.00,0.00,22.4,20.9,00.0,31.4,24.2,05.4,0000.0,0003.15,0001.14,0000.40
2023-02-04 12:24:00,,0824.1,5.02,0.00,22.4,20.9,00.0,31.4,24.2,05.3,0000.0,0003.07,0001.15,0000.41
2023-02-04 12:25:00,,0824.1,5.02,0.00,22.4,20.9,00.0,31.4,24.1,05.5,0000.0,0003.00,0001.16,0000.41
2023-02-04 12:26:00,,0824.1,4.99,0.00,22.4,20.9,00.0,31.4,24.1,05.8,0000.0,0002.96,0001.15,0000.41
2023-02-04 12:27:00,,0824.1,4.96,0.00,22.4,20.9,00.0,31.4,24.1,05.6,0000.0,0002.97,0001.16,0000.41
2023-02-04 12:28:00,,0824.1,5.01,0.00,22.4,20.9,00.0,31.4,24.1,05.6,0000.0,0002.95,0001.16,0000.41
2023-02-04 12:29:00,,0824.1,5.02,0.00,22.4,20.9,00.0,31.4,24.1,05.4,0000.0,0003.01,0001.18,0000.42
2023-02-04 12:30:00,,0824.1,5.01,0.00,22.4,20.9,00.0,31.3,24.0,05.4,0000.0,0002.95,0001.17,0000.43
2023-02-04 12:31:00,,0824.2,5.00,0.00,22.4,20.9,00.0,31.3,24.1,05.2,0000.0,0002.93,0001.16,0000.43
2023-02-04 12:32:00,,0824.2,4.98,0.00,22.4,20.9,00.0,31.3,24.1,05.1,0000.0,0003.47,0001.19,0000.43
2023-02-04 12:33:00,,0824.1,4.98,0.00,22.4,20.9,00.0,31.3,24.1,05.6,0000.0,0003.62,0001.21,0000.44
2023-02-04 12:34:00,,0824.1,5.02,0.00,22.4,20.9,00.0,31.3,24.1,05.8,0000.0,0003.63,0001.23,0000.45
2023-02-04 12:35:00,,0824.2,5.01,0.00,22.4,20.9,00.0,31.3,24.1,05.5,0000.0,0003.59,0001.30,0000.45
2023-02-04 12:36:00,,0824.2,5.03,0.00,22.4,20.9,00.0,31.3,24.0,05.3,0000.0,0003.55,0001.30,0000.45
2023-02-04 12:37:00,,0824.2,4.99,0.00,22.3,20.8,00.0,31.3,24.0,05.7,0000.0,0003.49,0001.28,0000.46
2023-02-04 12:38:00,,0824.0,5.00,0.00,22.3,20.8,00.0,31.3,24.0,06.1,0000.0,0003.50,0001.29,0000.46
2023-02-04 12:39:00,,0824.1,4.98,0.00,22.3,20.8,00.0,31.3,24.0,05.7,0000.0,0003.52,0001.29,0000.46
2023-02-04 12:40:00,,0824.2,4.99,0.00,22.3,20.7,00.0,31.3,23.9,05.5,0000.0,0003.52,0001.26,0000.44
2023-02-04 12:41:00,,0824.1,5.01,0.00,22.3,20.7,00.0,31.3,23.9,05.8,0000.0,0003.75,0001.26,0000.44
2023-02-04 12:42:00,,0824.0,5.01,0.00,22.3,20.7,00.0,31.2,23.9,05.4,0000.0,0003.97,0001.32,0000.44
2023-02-04 12:43:00,,0824.1,5.02,0.00,22.3,20.6,00.0,31.2,23.9,05.6,0000.0,0003.14,0001.23,0000.43
2023-02-04 12:44:00,,0824.1,4.99,0.00,22.2,20.6,00.0,31.2,23.9,05.9,0000.0,0002.99,0001.18,0000.42
2023-02-04 12:45:00,,0824.2,5.02,0.00,22.2,20.6,00.0,31.2,23.9,05.8,0000.0,0003.12,0001.17,0000.41
2023-02-04 12:46:00,,0824.1,4.98,0.00,22.2,20.6,00.0,31.2,23.9,05.2,0000.0,0004.18,0001.13,0000.41
2023-02-04 12:47:00,,0824.0,4.98,0.00,22.2,20.6,00.0,31.2,23.9,05.4,0000.0,0004.20,0001.15,0000.41
2023-02-04 12:48:00,,0823.9,5.00,0.00,22.2,20.5,00.0,31.2,23.9,05.6,0000.0,0004.25,0001.15,0000.41
2023-02-04 12:49:00,,0824.0,4.99,0.00,22.1,20.3,00.0,31.2,23.8,05.4,0000.0,0004.24,0001.13,0000.41
2023-02-04 12:50:00,,0824.1,5.01,0.00,22.1,20.3,00.0,31.1,23.7,05.8,0000.0,0004.50,0001.13,0000.40
2023-02-04 12:51:00,,0824.1,5.01,0.00,22.1,20.3,00.0,31.1,23.7,05.9,0000.0,0005.22,0001.12,0000.40
2023-02-04 12:52:00,,0824.1,5.01,0.00,22.0,20.3,00.0,31.1,23.7,05.8,0000.0,0005.35,0001.12,0000.40
2023-02-04 12:53:00,,0824.0,5.01,0.00,22.0,20.3,00.0,31.1,23.7,05.8,0000.0,0005.04,0001.04,0000.39
2023-02-04 12:54:00,,0823.8,4.99,0.00,22.0,20.4,00.0,31.0,23.7,05.8,0000.0,0005.11,0001.04,0000.39
2023-02-04 12:55:00,,0823.7,4.98,0.00,22.0,20.4,00.0,31.0,23.7,06.1,0000.0,0005.20,0001.08,0000.40
2023-02-04 12:56:00,,0823.8,4.99,0.00,22.0,20.4,00.0,31.0,23.7,06.2,0000.0,0005.13,0001.08,0000.40
2023-02-04 12:57:00,,0823.8,5.00,0.00,22.0,20.3,00.0,31.0,23.6,05.7,0000.0,0003.85,0001.04,0000.40
2023-02-04 12:58:00,,0823.8,5.02,0.00,21.9,20.2,00.0,31.0,23.5,05.6,0000.0,0003.54,0000.97,0000.39
2023-02-04 12:59:00,,0823.7,5.02,0.00,21.9,20.2,00.0,31.0,23.5,05.7,0000.0,0003.52,0000.94,0000.39
